OBJECT A, 65544

Orbit data source: Space-Track

You're viewing an Uncataloged Satellite

Recently launched and/or uncataloged satellites may have evolving metadata. Metadata may include but not limited to: Owner, Maufacturer, Bus, Motor, and Mission.

OBJECT A, 65544 is a satellite owned by CAST (CN) in LEO that was launched on Sat, 06 Sep 2025 UTC via a CHANG ZHENG 6A launch vehicle from the Taiyaun Space Center, China (TSC). Unknown objects in Earth's orbit typically refer to objects detected orbiting the Earth but have not yet been identified or cataloged. These objects could be anything from previously untracked satellites, spent rocket stages, debris from satellite collisions, or even natural meteoroids temporarily captured by Earth's gravity.

Loading next visibility...
Identifier
65544, 2025-199A
Orbit
LEO
Country
Flag of CNCN / PRC
Related business
Manufacturer
DFH
Mission
Operational Defense Sigint
Bus & Motor
YG40, Unknown motor
Mass
~500 kg wet, ~500 kg dry
Launch date (UTC)
2025-09-06 (9 months ago)
Launch vehicle
CHANG ZHENG 6A
Launch site
Taiyaun Space Center, China (TSC)
Object type
Unknown
Shape & HBR
Box + 2 Pan, 1.1 m
Radar Cross Section
5.141 m², Large (>1 m²)

Expand to show TLE details & history
Last TLE update: 11 hours ago

TLE from 11 hours ago
0 OBJECT A
1 65544U 25199A   26171.37618440  .00000212  00000-0  79933-4 0  9990
2 65544  85.9887  39.6801 0015608  63.2481 297.0305 14.26488929 40870
Epoch: 2026-06-20T09:01Z
TLE epoch observation values (Epoch: 2026-06-20T09:01:42.332Z)
Latitude
Longitude
-4.33798°
Altitude
801.444 km
Speed
7.455 km/s
True Right ascension
02h 38m 43s
True Declination
0° 00' 00"
Sunlit
Object was in daylight at epoch
Visualization orbit readout
Latitude
Unknown
Longitude
Unknown
Altitude
Unknown
Speed
Unknown
Apparent Right ascension
Unknown
Apparent Declination
Unknown
Sunlit
N/A
Visualization observer readout
Local Sidereal Time
07:19:42
Azimuth
Unknown
Elevation
Unknown
Doppler factor
Unknown
Orbital elements
Apogee altitude
811.679 km
Perigee altitude
789.271 km
Semi-major axis
7,178.612 km
Eccentricity
0.00156
Inclination
85.9887°
RAAN
39.6801°
Arg. of periapsis
63.2481°
True anomaly
296.87104°
Mean anomaly
297.0305°
Eccentric anomaly
296.95078°
Mean motion
3.56847 °/min
Orbital period
100.88 mins
BSTAR
0.000079933
Loading maneuver chart data...
Computing Atmospheric mass density...
Loading historical data...
Loading historical data...
Loading historical data...
Loading historical data...
Loading historical data...
Loading historical data...
Loading historical data...
Other satellites on launch #199 in the year 2025 (2025-09-06 UTC)

Documentation

Showing up to 5 results
|